sat.trackr.live / text

‹ back to catalog

STARLINK-37349

NORAD 68734 · 2026-082G

PAYLOAD ACTIVE UNKNOWN

§ Identity

Operator
Country
US
Launch date
2026-04-15
Launch site
AFWTR
Launch vehicle
Mass (kg)
RCS (m²)

Purposes: comms

External: N2YO · Heavens-Above · Gunter

§ Orbital elements

Epoch: 2026-09-19T10:09:28.161504Z

Period
93.91 min
Inclination
97.2845°
Eccentricity
0.0004762
Mean motion
15.33447329 rev/d
Perigee alt
462.3 km
Apogee alt
468.8 km
Semi-major
6,843.7 km
B*
1.1636e-4
RAAN
124.6392°
Arg perigee
57.7060°
Mean anomaly
302.4643°
Rev number
2,414

§ Raw data

STARLINK-373491 68734U 26082G   26262.42324261  .00003684  00000+0  11636-3 0  99982 68734  97.2845 124.6392 0004762  57.7060 302.4643 15.33447329 24140

JSON: /api/v1/satellites/68734 · /tle

For live sub-satellite position, see the globe view (requires WebGL).

§ Visibility from observer

Set your observer location to see the next 7 days of passes ≥ 10°. The values pass through the URL so the page stays shareable.

No JS? Fill the form by hand. The geolocation button needs JavaScript.